When you browse on this site, cookies collect data to enhance your experience and personalize the content and advertising you see.
Visit our Privacy Policy to learn more. By continuing to use the site, you agree to this use of cookies and data.
  • In France
  • List of Countries
  • For 7 days
  • Water Temperature
  • Weather Map
  • Weather Widgets
  • user-avatar
    Login

    Hourly Weather North-Horr

    Today, 3 April, Friday

    Time Temperature Precipitation Wind Pressure Humidity
    00:00 +34°C° 0.1 mm 7 mps 723 mmHg 49%
    01:00 +34°C° 0.1 mm 7 mps 722 mmHg 50%
    02:00 +34°C° 0 mm 7 mps 722 mmHg 50%
    03:00 +33°C° 0 mm 6 mps 722 mmHg 51%
    04:00 +33°C° 0 mm 6 mps 723 mmHg 52%
    05:00 +32°C° 0 mm 5 mps 723 mmHg 53%
    06:00 +33°C° 0 mm 7 mps 724 mmHg 52%
    07:00 +33°C° 0 mm 8 mps 724 mmHg 51%
    08:00 +34°C° 0 mm 10 mps 724 mmHg 49%
    09:00 +36°C° 0 mm 10 mps 724 mmHg 46%
    10:00 +37°C° 0 mm 9 mps 724 mmHg 42%
    11:00 +38°C° 0 mm 9 mps 724 mmHg 38%
    12:00 +39°C° 0 mm 9 mps 724 mmHg 37%
    13:00 +39°C° 0 mm 9 mps 723 mmHg 35%
    14:00 +40°C° 0 mm 8 mps 722 mmHg 33%
    15:00 +39°C° 0 mm 9 mps 722 mmHg 35%
    16:00 +39°C° 0 mm 9 mps 722 mmHg 38%
    17:00 +38°C° 0 mm 10 mps 722 mmHg 40%
    18:00 +37°C° 0 mm 9 mps 722 mmHg 42%
    19:00 +37°C° 0 mm 9 mps 723 mmHg 43%
    20:00 +35°C° 0 mm 9 mps 723 mmHg 45%
    21:00 +35°C° 0 mm 8 mps 723 mmHg 45%
    22:00 +34°C° 0 mm 8 mps 724 mmHg 45%
    23:00 +34°C° 0 mm 7 mps 724 mmHg 45%

    Tomorrow, 4 April, Saturday

    Time Temperature Precipitation Wind Pressure Humidity
    00:00 +34°C° 0 mm 7 mps 724 mmHg 47%
    01:00 +33°C° 0 mm 6 mps 723 mmHg 48%
    02:00 +33°C° 0 mm 6 mps 723 mmHg 50%
    03:00 +32°C° 0 mm 6 mps 723 mmHg 51%
    04:00 +32°C° 0 mm 5 mps 724 mmHg 52%
    05:00 +30°C° 0 mm 4 mps 724 mmHg 54%
    06:00 +32°C° 0 mm 6 mps 725 mmHg 52%
    07:00 +33°C° 0 mm 7 mps 725 mmHg 50%
    08:00 +34°C° 0 mm 9 mps 726 mmHg 48%
    09:00 +35°C° 0 mm 9 mps 726 mmHg 43%
    10:00 +38°C° 0 mm 9 mps 726 mmHg 39%
    11:00 +39°C° 0 mm 8 mps 725 mmHg 34%
    12:00 +39°C° 0 mm 9 mps 725 mmHg 33%
    13:00 +40°C° 0 mm 9 mps 724 mmHg 32%
    14:00 +40°C° 0 mm 9 mps 723 mmHg 31%
    15:00 +39°C° 0 mm 9 mps 723 mmHg 32%
    16:00 +39°C° 0 mm 9 mps 723 mmHg 34%
    17:00 +38°C° 0 mm 9 mps 723 mmHg 36%
    18:00 +37°C° 0 mm 9 mps 723 mmHg 38%
    19:00 +37°C° 0 mm 9 mps 723 mmHg 40%
    20:00 +36°C° 0 mm 10 mps 724 mmHg 43%
    21:00 +35°C° 0 mm 9 mps 724 mmHg 43%
    22:00 +34°C° 0 mm 9 mps 724 mmHg 43%
    23:00 +34°C° 0 mm 8 mps 724 mmHg 43%

    Day after tomorrow, 5 April, Sunday

    Time Temperature Precipitation Wind Pressure Humidity
    00:00 +34°C° 0 mm 8 mps 724 mmHg 44%
    01:00 +33°C° 0 mm 8 mps 724 mmHg 45%
    02:00 +33°C° 0 mm 8 mps 724 mmHg 47%
    03:00 +32°C° 0 mm 7 mps 724 mmHg 47%
    04:00 +32°C° 0 mm 6 mps 724 mmHg 48%
    05:00 +32°C° 0 mm 6 mps 724 mmHg 49%
    06:00 +33°C° 0 mm 7 mps 725 mmHg 45%
    07:00 +34°C° 0 mm 8 mps 726 mmHg 42%
    08:00 +36°C° 0 mm 10 mps 727 mmHg 38%
    09:00 +37°C° 0 mm 9 mps 726 mmHg 35%
    10:00 +38°C° 0 mm 9 mps 726 mmHg 32%
    11:00 +40°C° 0 mm 9 mps 726 mmHg 29%
    12:00 +40°C° 0 mm 8 mps 725 mmHg 28%
    13:00 +41°C° 0 mm 8 mps 724 mmHg 26%
    14:00 +41°C° 0 mm 8 mps 724 mmHg 25%
    15:00 +40°C° 0 mm 9 mps 724 mmHg 27%
    16:00 +39°C° 0 mm 9 mps 723 mmHg 30%
    17:00 +38°C° 0 mm 10 mps 723 mmHg 32%
    18:00 +38°C° 0 mm 10 mps 724 mmHg 35%
    19:00 +37°C° 0 mm 10 mps 724 mmHg 37%
    20:00 +36°C° 0 mm 10 mps 725 mmHg 39%
    21:00 +35°C° 0 mm 9 mps 725 mmHg 40%
    22:00 +34°C° 0 mm 8 mps 725 mmHg 41%
    23:00 +34°C° 0 mm 8 mps 725 mmHg 41%

    6 April, Monday

    Time Temperature Precipitation Wind Pressure Humidity
    00:00 +33°C° 0 mm 7 mps 724 mmHg 43%
    01:00 +33°C° 0 mm 7 mps 724 mmHg 45%
    02:00 +33°C° 0 mm 6 mps 724 mmHg 47%
    03:00 +32°C° 0 mm 6 mps 724 mmHg 48%
    04:00 +32°C° 0 mm 5 mps 724 mmHg 49%
    05:00 +30°C° 0 mm 4 mps 724 mmHg 50%
    06:00 +32°C° 0 mm 6 mps 725 mmHg 45%
    07:00 +34°C° 0 mm 7 mps 726 mmHg 41%
    08:00 +35°C° 0 mm 9 mps 727 mmHg 37%
    09:00 +37°C° 0 mm 9 mps 726 mmHg 34%
    10:00 +38°C° 0 mm 8 mps 726 mmHg 31%
    11:00 +40°C° 0 mm 8 mps 726 mmHg 28%
    12:00 +40°C° 0 mm 8 mps 725 mmHg 27%
    13:00 +40°C° 0 mm 8 mps 724 mmHg 27%
    14:00 +40°C° 0 mm 8 mps 723 mmHg 26%
    15:00 +40°C° 0 mm 9 mps 723 mmHg 28%
    16:00 +39°C° 0 mm 9 mps 723 mmHg 30%
    17:00 +39°C° 0 mm 10 mps 723 mmHg 31%
    18:00 +38°C° 0 mm 9 mps 723 mmHg 33%
    19:00 +37°C° 0 mm 9 mps 724 mmHg 35%
    20:00 +35°C° 0 mm 9 mps 724 mmHg 37%
    21:00 +35°C° 0 mm 8 mps 724 mmHg 38%
    22:00 +35°C° 0 mm 8 mps 724 mmHg 39%
    23:00 +34°C° 0 mm 7 mps 725 mmHg 40%

    7 April, Tuesday

    Time Temperature Precipitation Wind Pressure Humidity
    00:00 +34°C° 0 mm 6 mps 724 mmHg 42%
    01:00 +33°C° 0 mm 6 mps 724 mmHg 44%
    02:00 +33°C° 0 mm 5 mps 723 mmHg 45%
    03:00 +32°C° 0 mm 5 mps 724 mmHg 46%
    04:00 +32°C° 0 mm 4 mps 724 mmHg 47%
    05:00 +32°C° 0 mm 4 mps 724 mmHg 48%
    06:00 +33°C° 0 mm 5 mps 725 mmHg 45%
    07:00 +34°C° 0 mm 7 mps 726 mmHg 41%
    08:00 +35°C° 0 mm 8 mps 726 mmHg 37%
    09:00 +37°C° 0 mm 8 mps 726 mmHg 35%
    10:00 +39°C° 0 mm 8 mps 726 mmHg 32%
    11:00 +40°C° 0 mm 8 mps 726 mmHg 29%
    12:00 +40°C° 0 mm 8 mps 724 mmHg 29%
    13:00 +40°C° 0 mm 8 mps 723 mmHg 30%
    14:00 +40°C° 0 mm 8 mps 722 mmHg 30%
    15:00 +40°C° 0 mm 9 mps 722 mmHg 30%
    16:00 +40°C° 0 mm 9 mps 722 mmHg 30%
    17:00 +40°C° 0 mm 9 mps 722 mmHg 29%
    18:00 +39°C° 0 mm 9 mps 722 mmHg 32%
    19:00 +38°C° 0 mm 10 mps 723 mmHg 35%
    20:00 +37°C° 0 mm 10 mps 723 mmHg 38%
    21:00 +37°C° 0 mm 9 mps 723 mmHg 39%
    22:00 +35°C° 0 mm 9 mps 724 mmHg 40%
    23:00 +35°C° 0 mm 9 mps 724 mmHg 41%

    8 April, Wednesday

    Time Temperature Precipitation Wind Pressure Humidity
    00:00 +34°C° 0 mm 8 mps 723 mmHg 44%
    01:00 +34°C° 0 mm 8 mps 723 mmHg 46%
    02:00 +33°C° 0 mm 7 mps 722 mmHg 48%
    03:00 +33°C° 0 mm 7 mps 723 mmHg 49%
    04:00 +32°C° 0 mm 6 mps 723 mmHg 51%
    05:00 +32°C° 0 mm 6 mps 724 mmHg 53%
    06:00 +33°C° 0 mm 7 mps 724 mmHg 52%
    07:00 +33°C° 0 mm 8 mps 725 mmHg 52%
    08:00 +34°C° 0 mm 9 mps 726 mmHg 52%
    09:00 +35°C° 0 mm 9 mps 726 mmHg 46%
    10:00 +38°C° 0 mm 9 mps 726 mmHg 41%
    11:00 +39°C° 0 mm 9 mps 725 mmHg 35%
    12:00 +40°C° 0 mm 9 mps 724 mmHg 33%
    13:00 +40°C° 0 mm 9 mps 723 mmHg 32%
    14:00 +42°C° 0 mm 9 mps 723 mmHg 30%
    15:00 +40°C° 0 mm 9 mps 722 mmHg 32%
    16:00 +39°C° 0 mm 10 mps 722 mmHg 33%
    17:00 +39°C° 0 mm 10 mps 722 mmHg 35%
    18:00 +38°C° 0 mm 10 mps 723 mmHg 37%
    19:00 +37°C° 0 mm 10 mps 723 mmHg 38%
    20:00 +36°C° 0 mm 10 mps 724 mmHg 40%
    21:00 +35°C° 0 mm 9 mps 724 mmHg 43%
    22:00 +34°C° 0 mm 9 mps 724 mmHg 47%
    23:00 +33°C° 0 mm 9 mps 724 mmHg 51%
    Show more